Location: Atlanta
(33.7490°N, 84.3880°W)
Time: 18:46:50
(UTC-05:00)

Daily predictions for brighter satellites

Satellite Brightness Start Highest point End
(mag) Time Altitude Azimuth Time Altitude Azimuth Time Altitude Azimuth
SL-27 R/B 3.9 17:53:40 10° NNE 17:56:24 20° ENE 17:59:07 10° ESE
SJ-12 4.0 17:52:37 10° SSE 17:56:36 56° ENE 18:00:37 10° N
Cosmos 2154 Rocket 4.5 17:52:15 10° NNW 17:58:26 68° W 18:04:38 10° S
Okean 1 Rocket 3.9 17:54:17 10° NNW 17:58:31 54° W 18:02:44 10° S
CZ-4 R/B 1.4 17:54:51 10° SSE 17:59:01 76° ENE 18:03:12 10° N
Okean 3 4.5 17:55:29 10° SSW 17:59:40 50° W 18:03:51 10° N
Tiangong 1 3.1 17:58:04 10° S 17:59:56 15° SE 18:01:49 10° ESE
Cosmos 1844 Rocket 2.7 17:56:54 10° SSW 18:02:28 90° W 18:08:06 10° NNE
Cosmos 1975 Rocket 3.4 17:59:39 10° SSW 18:03:57 70° W 18:08:15 10° N
COSMO-SKYMED 1 3.5 18:00:21 10° NE 18:04:07 28° E 18:07:51 10° SSE
Cosmos 1544 Rocket 4.1 18:00:49 10° N 18:04:59 38° E 18:09:08 10° SSE
Cosmos 158 Rocket 4.0 17:59:56 10° N 18:05:15 63° ENE 18:10:25 10° SSE
CZ-2C R/B 2.4 18:00:49 10° SSE 18:05:39 69° ENE 18:10:42 10° N
Cosmos 1048 Rocket 4.2 18:03:22 10° NNW 18:08:42 79° WSW 18:14:02 10° S
Cosmos 1238 Rocket 2.4 18:06:35 10° SSE 18:09:29 42° E 18:12:17 10° NNE
Cosmos 1844 3.6 18:07:09 10° SSW 18:12:43 81° ESE 18:18:18 10° NNE
CZ-3A R/B 4.2 18:10:08 10° W 18:14:35 35° NNW 18:32:04 10° NE
OPS 8737 4.3 18:12:11 10° SSW 18:15:47 84° ESE 18:18:55 10° NNE
AQUARIUS 4.2 18:13:13 10° SSE 18:17:42 87° WSW 18:22:13 10° NNW
MOS 1 4.4 18:12:36 10° SSE 18:18:16 85° WSW 18:23:57 10° NNW
Cosmos 1975 3.9 18:15:23 10° NNE 18:18:44 24° ENE 18:22:03 10° SE
Cosmos 1536 Rocket 3.8 18:16:12 10° SSE 18:20:27 49° E 18:24:47 10° NNE
CORIOLIS 4.1 18:15:19 10° SSE 18:20:44 83° ENE 18:26:10 10° N
SPOT 3 Rocket 3.8 18:19:03 10° S 18:24:14 76° WSW 18:29:26 10° NNW
SMAP 3.4 18:21:32 10° S 18:26:09 71° WSW 18:30:48 10° NNW
YAOGAN 1 2.8 18:23:19 10° S 18:27:37 72° W 18:31:57 10° NNW
SL-24 DEB 4.3 18:24:50 10° NNE 18:29:31 60° E 18:34:09 10° S
Cosmos 2278 Rocket 2.2 18:24:52 10° S 18:30:27 68° ESE 18:36:04 10° NNE
COSMOS 2406 3.7 18:30:35 10° NNW 18:36:15 66° WSW 18:41:55 10° S
SL-8 Rocket 4.2 18:30:53 10° N 18:37:01 75° W 18:43:09 10° S
IDEFIX/ARIANE 42P 3.4 18:35:30 10° S 18:40:35 54° W 18:45:41 10° NNW
Cosmos 1484 Rocket 2.5 18:40:56 10° SSE 18:44:42 73° ENE 18:48:27 10° N
Okean 1-7 Rocket 4.3 18:41:24 10° SSE 18:45:25 32° E 18:46:43 27° ENE
Cosmos 2366 rocket 4.1 18:40:48 10° N 18:47:10 86° W 18:53:27 10° S
CZ-3B DEB 3.1 18:44:53 10° W 18:48:19 38° NNW 18:55:17 12° NE
Cosmos 921 Rocket 3.8 18:44:53 10° SSE 18:48:28 28° E 18:48:30 28° E
OTV 4 0.3 18:45:57 10° WNW 18:48:58 88° NNE 18:49:39 49° ESE
Cosmos 2218 Rocket 4.3 18:42:42 10° N 18:48:58 73° W 18:55:08 10° S
SKYMED 2 3.8 18:47:55 10° N 18:52:15 73° WNW 18:56:34 10° SSW
Cosmos 1455 Rocket 3.4 18:50:20 10° NNW 18:54:42 69° W 18:59:06 10° S
Cosmos 2082 Rocket 3.6 18:55:08 10° N 18:57:45 20° NNE 18:57:45 20° NNE
NOSS 3-3 (A) 4.3 18:58:24 10° SW 19:04:28 67° WNW 19:09:41 16° NNE
NOSS 3-3 (C) 4.2 18:58:29 10° SW 19:04:34 67° WNW 19:09:45 17° NNE
Delta 2 Rocket 3.7 19:00:53 10° SW 19:04:46 53° SSE 19:05:40 44° ESE
BREEZE-M DEB (TANK) 4.2 19:01:03 10° WNW 19:05:29 43° SW 19:09:01 10° SSE
Cosmos 1833 Rocket 4.4 19:01:16 10° N 19:02:46 16° NNE 19:02:46 16° NNE
SL-8 R/B 4.5 19:02:34 10° WSW 19:07:08 45° NNW 19:09:02 29° NNE
Cosmos 494 Rocket 4.1 19:04:08 10° NNW 19:09:24 79° WSW 19:14:38 10° S
Cosmos 1809 Rocket 4.3 19:06:25 10° N 19:12:36 83° E 19:18:42 10° S
NOAA 12 4.0 19:08:35 10° SSE 19:13:49 68° ENE 19:19:03 10° N
Cosmos 1500 3.2 19:10:08 10° N 19:13:57 80° W 19:17:47 10° S
METEOR-M 4.1 19:09:24 10° SSE 19:14:37 57° ENE 19:19:50 10° N
Hubble Space Telescope 3.4 19:13:05 10° WSW 19:15:29 15° SSW 19:17:52 10° SSE
Meteor 1-28 Rocket 3.7 19:15:04 26° N 19:17:02 59° WNW 19:20:46 10° SSW
ATLAS 2AS CENTAUR R/B 3.0 19:09:31 10° NNW 19:17:33 84° WSW 19:24:55 10° SSE
Meteor 2-4 Rocket 3.8 19:13:05 10° SSE 19:18:00 47° ESE 19:18:00 47° ESE
Cosmos 1821 Rocket 4.0 19:16:44 10° N 19:22:40 52° E 19:28:34 10° SSE
Cosmos 2251 Rocket 4.5 19:17:47 10° NNW 19:22:55 48° WSW 19:27:59 10° S
Cosmos 1346 Rocket 4.3 19:27:01 10° SW 19:30:38 35° WNW 19:32:45 20° NNW
Tiangong 1 3.6 19:32:54 10° WSW 19:34:09 22° W 19:34:09 22° W
Meteor 2-8 Rocket 4.4 19:32:21 10° S 19:37:40 59° ESE 19:37:40 59° ESE
GEOS 3 Rocket 4.1 19:39:07 13° SSE 19:43:36 56° WSW 19:48:38 10° NW
ATLAS 3B CENTAUR R/B 3.1 19:44:41 10° W 19:59:14 59° S 20:00:11 55° SSE
FALCON 9 R/B 3.1 20:12:28 10° W 20:26:28 70° WNW 20:26:28 70° WNW
